This is the latest recevied weather packets stored in our database for station/object SP5MRF. If no packets are shown the sender has not sent any weather packets the latest 10 day(s).
| Time | Temp. | Humidity | Pressure | Rain* | Wind** | Luminosity | Snow |
|---|---|---|---|---|---|---|---|
| 1788091255 | 27.22° C | 44% | 1010.6 hPa | 0 mm | - | - | - |
| 1788090776 | 27.22° C | 46% | 1010.7 hPa | 0 mm | - | - | - |
| 1788089815 | 26.67° C | 46% | 1010.8 hPa | 0 mm | - | - | - |
| 1788089335 | 27.22° C | 46% | 1011 hPa | 0 mm | - | - | - |
| 1788088855 | 27.22° C | 47% | 1011.1 hPa | 0 mm | - | - | - |
| 1788088377 | 26.67° C | 47% | 1011.2 hPa | 0 mm | - | - | - |
| 1788087895 | 26.67° C | 48% | 1011.3 hPa | 0 mm | - | - | - |
| 1788087415 | 26.67° C | 49% | 1011.3 hPa | 0 mm | - | - | - |
| 1788086936 | 26.11° C | 48% | 1011.6 hPa | 0 mm | - | - | - |
| 1788086455 | 26.11° C | 48% | 1011.5 hPa | 0 mm | - | - | - |
| 1788085975 | 26.67° C | 49% | 1011.8 hPa | 0 mm | - | - | - |
| 1788085499 | 26.67° C | 50% | 1011.7 hPa | 0 mm | - | - | - |
| 1788085015 | 26.11° C | 50% | 1011.7 hPa | 0 mm | - | - | - |
| 1788084056 | 26.11° C | 52% | 1011.6 hPa | 0 mm | - | - | - |
| 1788083575 | 25.56° C | 54% | 1011.6 hPa | 0 mm | - | - | - |
| 1788083097 | 25° C | 54% | 1011.9 hPa | 0 mm | - | - | - |
| 1788082616 | 24.44° C | 56% | 1012 hPa | 0 mm | - | - | - |
| 1788082135 | 23.89° C | 57% | 1011.9 hPa | 0 mm | - | - | - |
| 1788081655 | 23.89° C | 56% | 1011.8 hPa | 0 mm | - | - | - |
| 1788081175 | 23.89° C | 58% | 1012 hPa | 0 mm | - | - | - |
| 1788080216 | 23.33° C | 59% | 1012.1 hPa | 0 mm | - | - | - |
| 1788079735 | 23.33° C | 58% | 1012.2 hPa | 0 mm | - | - | - |
| 1788079255 | 23.33° C | 58% | 1012.4 hPa | 0 mm | - | - | - |
| 1788078775 | 23.33° C | 59% | 1012.4 hPa | 0 mm | - | - | - |
| 1788078297 | 23.33° C | 60% | 1012.3 hPa | 0 mm | - | - | - |
* Rain latest hour (hover to see other rain measurements)
** Current wind speed in m/s (hover to see current wind gust speed)